When you browse on this site, cookies collect data to enhance your experience and personalize the content and advertising you see.
Visit our Privacy Policy to learn more. By continuing to use the site, you agree to this use of cookies and data.
EN

Hourly Weather Dharapuram

Today, 6 August, Thursday

Time Temperature Precipitation Wind Pressure Humidity
00:00 +29°C° 0 mm 8 mps 731 mmHg 68%
01:00 +29°C° 0 mm 8 mps 731 mmHg 69%
02:00 +28°C° 0 mm 8 mps 731 mmHg 70%
03:00 +28°C° 0 mm 8 mps 731 mmHg 70%
04:00 +28°C° 0 mm 8 mps 731 mmHg 69%
05:00 +28°C° 0 mm 8 mps 731 mmHg 69%
06:00 +29°C° 0.1 mm 8 mps 731 mmHg 69%
07:00 +29°C° 0.1 mm 8 mps 732 mmHg 68%
08:00 +29°C° 0.1 mm 8 mps 733 mmHg 68%
09:00 +31°C° 0 mm 9 mps 733 mmHg 62%
10:00 +33°C° 0 mm 10 mps 733 mmHg 57%
11:00 +34°C° 0 mm 11 mps 733 mmHg 51%
12:00 +34°C° 0 mm 11 mps 733 mmHg 51%
13:00 +34°C° 0 mm 11 mps 732 mmHg 51%
14:00 +36°C° 0 mm 11 mps 732 mmHg 51%
15:00 +34°C° 0 mm 11 mps 731 mmHg 53%
16:00 +33°C° 0 mm 11 mps 731 mmHg 55%
17:00 +32°C° 0 mm 11 mps 731 mmHg 58%
18:00 +32°C° 0 mm 10 mps 732 mmHg 59%
19:00 +31°C° 0 mm 9 mps 732 mmHg 61%
20:00 +31°C° 0 mm 9 mps 733 mmHg 63%
21:00 +29°C° 0 mm 9 mps 733 mmHg 63%
22:00 +29°C° 0 mm 9 mps 734 mmHg 63%
23:00 +29°C° 0 mm 9 mps 734 mmHg 64%

Tomorrow, 7 August, Friday

Time Temperature Precipitation Wind Pressure Humidity
00:00 +29°C° 0 mm 9 mps 733 mmHg 65%
01:00 +29°C° 0 mm 9 mps 733 mmHg 67%
02:00 +28°C° 0 mm 9 mps 733 mmHg 69%
03:00 +28°C° 0 mm 9 mps 733 mmHg 69%
04:00 +28°C° 0 mm 8 mps 733 mmHg 69%
05:00 +28°C° 0 mm 8 mps 733 mmHg 69%
06:00 +29°C° 0 mm 8 mps 733 mmHg 68%
07:00 +29°C° 0 mm 8 mps 734 mmHg 68%
08:00 +29°C° 0 mm 9 mps 734 mmHg 67%
09:00 +31°C° 0 mm 9 mps 734 mmHg 62%
10:00 +33°C° 0 mm 10 mps 735 mmHg 58%
11:00 +34°C° 0 mm 11 mps 735 mmHg 53%
12:00 +34°C° 0 mm 11 mps 734 mmHg 53%
13:00 +34°C° 0 mm 11 mps 733 mmHg 52%
14:00 +34°C° 0 mm 11 mps 733 mmHg 51%
15:00 +34°C° 0 mm 11 mps 733 mmHg 54%
16:00 +33°C° 0 mm 10 mps 733 mmHg 56%
17:00 +32°C° 0 mm 10 mps 733 mmHg 58%
18:00 +31°C° 0 mm 9 mps 733 mmHg 60%
19:00 +31°C° 0 mm 9 mps 734 mmHg 63%
20:00 +29°C° 0 mm 8 mps 734 mmHg 65%
21:00 +29°C° 0.1 mm 8 mps 734 mmHg 65%
22:00 +29°C° 0.1 mm 8 mps 734 mmHg 66%
23:00 +29°C° 0.1 mm 8 mps 735 mmHg 66%

Day after tomorrow, 8 August, Saturday

Time Temperature Precipitation Wind Pressure Humidity
00:00 +29°C° 0.1 mm 7 mps 734 mmHg 67%
01:00 +28°C° 0.1 mm 7 mps 734 mmHg 67%
02:00 +28°C° 0.1 mm 7 mps 733 mmHg 68%
03:00 +28°C° 0.1 mm 7 mps 733 mmHg 70%
04:00 +28°C° 0.1 mm 6 mps 733 mmHg 72%
05:00 +27°C° 0.1 mm 6 mps 733 mmHg 73%
06:00 +28°C° 0.1 mm 6 mps 734 mmHg 72%
07:00 +28°C° 0.1 mm 6 mps 734 mmHg 70%
08:00 +29°C° 0.1 mm 6 mps 735 mmHg 69%
09:00 +30°C° 0.2 mm 6 mps 735 mmHg 65%
10:00 +32°C° 0.2 mm 6 mps 735 mmHg 61%
11:00 +33°C° 0.2 mm 7 mps 735 mmHg 57%
12:00 +32°C° 0.8 mm 7 mps 734 mmHg 59%
13:00 +32°C° 0.8 mm 7 mps 734 mmHg 61%
14:00 +32°C° 0.8 mm 7 mps 733 mmHg 62%
15:00 +30°C° 0.5 mm 7 mps 733 mmHg 65%
16:00 +29°C° 0.5 mm 6 mps 733 mmHg 68%
17:00 +29°C° 0.5 mm 6 mps 733 mmHg 70%
18:00 +28°C° 0.9 mm 6 mps 733 mmHg 74%
19:00 +27°C° 0.9 mm 6 mps 733 mmHg 78%
20:00 +27°C° 0.9 mm 5 mps 734 mmHg 82%
21:00 +27°C° 0.7 mm 6 mps 734 mmHg 82%
22:00 +27°C° 0.7 mm 6 mps 734 mmHg 83%
23:00 +26°C° 0.7 mm 6 mps 734 mmHg 83%

9 August, Sunday

Time Temperature Precipitation Wind Pressure Humidity
00:00 +26°C° 0.4 mm 6 mps 734 mmHg 83%
01:00 +26°C° 0.4 mm 6 mps 733 mmHg 82%
02:00 +26°C° 0.4 mm 6 mps 733 mmHg 82%
03:00 +26°C° 0.3 mm 6 mps 733 mmHg 83%
04:00 +26°C° 0.3 mm 6 mps 733 mmHg 84%
05:00 +26°C° 0.3 mm 6 mps 733 mmHg 85%
06:00 +26°C° 0.1 mm 6 mps 733 mmHg 84%
07:00 +26°C° 0.1 mm 6 mps 734 mmHg 83%
08:00 +26°C° 0.1 mm 6 mps 734 mmHg 82%
09:00 +27°C° 0 mm 7 mps 734 mmHg 79%
10:00 +27°C° 0 mm 7 mps 734 mmHg 76%
11:00 +27°C° 0 mm 7 mps 734 mmHg 73%
12:00 +27°C° 0.2 mm 7 mps 734 mmHg 74%
13:00 +27°C° 0.2 mm 7 mps 733 mmHg 75%
14:00 +27°C° 0.2 mm 7 mps 732 mmHg 76%
15:00 +27°C° 0.2 mm 7 mps 732 mmHg 76%
16:00 +27°C° 0.2 mm 7 mps 732 mmHg 77%
17:00 +27°C° 0.2 mm 6 mps 732 mmHg 77%
18:00 +27°C° 0 mm 6 mps 733 mmHg 77%
19:00 +27°C° 0 mm 6 mps 733 mmHg 77%
20:00 +27°C° 0 mm 6 mps 734 mmHg 77%
21:00 +27°C° 0 mm 6 mps 734 mmHg 78%
22:00 +27°C° 0 mm 6 mps 734 mmHg 79%
23:00 +26°C° 0 mm 6 mps 734 mmHg 79%

10 August, Monday

Time Temperature Precipitation Wind Pressure Humidity
00:00 +26°C° 0 mm 6 mps 734 mmHg 80%
01:00 +26°C° 0 mm 6 mps 733 mmHg 81%
02:00 +26°C° 0 mm 6 mps 732 mmHg 81%
03:00 +26°C° 0 mm 6 mps 732 mmHg 81%
04:00 +26°C° 0 mm 6 mps 732 mmHg 80%
05:00 +26°C° 0 mm 6 mps 733 mmHg 79%
06:00 +27°C° 0 mm 6 mps 733 mmHg 77%
07:00 +27°C° 0 mm 6 mps 733 mmHg 74%
08:00 +28°C° 0 mm 6 mps 734 mmHg 72%
09:00 +28°C° 0 mm 6 mps 734 mmHg 72%
10:00 +28°C° 0 mm 7 mps 734 mmHg 71%
11:00 +29°C° 0 mm 7 mps 734 mmHg 71%
12:00 +29°C° 0.1 mm 7 mps 734 mmHg 69%
13:00 +29°C° 0.1 mm 7 mps 733 mmHg 68%
14:00 +31°C° 0.1 mm 8 mps 732 mmHg 66%
15:00 +29°C° 0 mm 7 mps 732 mmHg 68%
16:00 +29°C° 0 mm 7 mps 732 mmHg 70%
17:00 +28°C° 0 mm 7 mps 732 mmHg 71%
18:00 +28°C° 0 mm 7 mps 733 mmHg 72%
19:00 +28°C° 0 mm 7 mps 733 mmHg 73%
20:00 +27°C° 0 mm 6 mps 734 mmHg 74%
21:00 +27°C° 0 mm 6 mps 734 mmHg 74%
22:00 +27°C° 0 mm 6 mps 734 mmHg 74%
23:00 +27°C° 0 mm 6 mps 734 mmHg 73%

11 August, Tuesday

Time Temperature Precipitation Wind Pressure Humidity
00:00 +27°C° 0 mm 6 mps 734 mmHg 74%
01:00 +27°C° 0 mm 6 mps 733 mmHg 74%
02:00 +27°C° 0 mm 6 mps 733 mmHg 75%
03:00 +27°C° 0 mm 6 mps 733 mmHg 75%
04:00 +27°C° 0 mm 6 mps 733 mmHg 74%
05:00 +27°C° 0 mm 6 mps 733 mmHg 74%
06:00 +27°C° 0 mm 6 mps 733 mmHg 73%
07:00 +27°C° 0 mm 7 mps 734 mmHg 72%
08:00 +28°C° 0 mm 7 mps 735 mmHg 72%
09:00 +29°C° 0 mm 7 mps 735 mmHg 68%
10:00 +30°C° 0 mm 7 mps 735 mmHg 63%
11:00 +32°C° 0 mm 7 mps 735 mmHg 59%
12:00 +32°C° 0 mm 7 mps 734 mmHg 59%
13:00 +32°C° 0 mm 7 mps 734 mmHg 59%
14:00 +32°C° 0 mm 8 mps 733 mmHg 59%
15:00 +32°C° 0.1 mm 8 mps 733 mmHg 61%
16:00 +31°C° 0.1 mm 8 mps 733 mmHg 63%
17:00 +31°C° 0.1 mm 8 mps 733 mmHg 65%
18:00 +29°C° 0 mm 8 mps 734 mmHg 67%
19:00 +29°C° 0 mm 8 mps 734 mmHg 69%
20:00 +28°C° 0 mm 7 mps 735 mmHg 71%
21:00 +28°C° 0 mm 7 mps 735 mmHg 71%
22:00 +28°C° 0 mm 7 mps 735 mmHg 72%
23:00 +27°C° 0 mm 7 mps 736 mmHg 73%
Show more